Overview Statistics Trail Chart Weather Telemetry Raw packets
 

This is the latest recevied weather packets stored in our database for station/object EA4GRN. If no packets are shown the sender has not sent any weather packets the latest 10 day(s).

<< 4 5 6 7 8 9 10 >>
Time Temp. Humidity Pressure Rain* Wind** Luminosity Snow
1788534670 41.11° C 26% 1019.4 hPa - - - -
1788533772 41.11° C 26% 1019.4 hPa - - - -
1788532872 41.67° C 25% 1019.7 hPa - - - -
1788531972 44.44° C 25% 1019.7 hPa - - - -
1788531072 43.89° C 24% 1019.9 hPa - - - -
1788530171 43.33° C 25% 1020.1 hPa - - - -
1788529271 44.44° C 24% 1020.2 hPa - - - -
1788528371 43.33° C 25% 1020.4 hPa - - - -
1788527471 41.67° C 26% 1020.6 hPa - - - -
1788526571 41.11° C 26% 1020.8 hPa - - - -
1788525671 41.11° C 26% 1020.8 hPa - - - -
1788524771 40.56° C 27% 1021 hPa - - - -
1788523871 40.56° C 27% 1021.1 hPa - - - -
1788522971 40° C 27% 1021.3 hPa - - - -
1788522070 38.89° C 28% 1021.3 hPa - - - -
1788521170 38.89° C 28% 1021.6 hPa - - - -
1788520270 37.78° C 29% 1021.9 hPa - - - -
1788519370 37.78° C 28% 1022.1 hPa - - - -
1788518470 37.78° C 29% 1022.2 hPa - - - -
1788517570 38.33° C 28% 1022.2 hPa - - - -
1788516670 37.22° C 29% 1022.4 hPa - - - -
1788515769 37.22° C 29% 1022.5 hPa - - - -
1788514869 36.11° C 30% 1022.5 hPa - - - -
1788513969 35° C 30% 1022.3 hPa - - - -
1788513069 34.44° C 31% 1022.2 hPa - - - -

* Rain since midnight (hover to see other rain measurements)
** Current wind speed in m/s (hover to see current wind gust speed)